CZ-3C DEB, 42477

Orbit data source: Space-Track

CZ-3C DEB, 42477 is space debris in HEO originally from a launch on Fri, 24 Feb 2012 UTC launched from the Xichang Space Center, China (XSC). Debris objects in space refer to the collection of defunct objects orbiting the Earth. Examples of debris include non-operational satellites, rocket bodies, and fragments generated from explosions, collisions, or faulty payload assembly.

Loading next visibility...
Identifier
42477, 2012-008AM
Orbit
HEO
Country
Flag of CNCN / PRC
Related business
Manufacturer
CALT
Mission
Spacecraft
Bus & Motor
Unknown
Mass
Unknown
Launch date (UTC)
2012-02-24 (14 years ago)
Launch vehicle
Unknown
Launch site
Xichang Space Center, China (XSC)
Object type
Payload
Rocket body
Debris
Shape & HBR
Unknown shape, 0.2 m
Radar Cross Section
Medium (>0.1 m² and <1 m²)

Expand to show TLE details & history
Last TLE update: 1 day ago

TLE from 1 day ago
0 CZ-3C DEB
1 42477U 12008AM  26034.23200941  .00001583  00000-0  40869-2 0  9997
2 42477  19.8734  87.6259 6905248  39.3076 354.5258  2.66936757102340
Epoch: 2026-02-03T05:34Z
TLE epoch observation values (Epoch: 2026-02-03T05:34:05.613Z)
Latitude
-0.00002°
Longitude
-129.21708°
Altitude
1,081.174 km
Speed
9.418 km/s
True Right ascension
05h 50m 53s
True Declination
0° 00' 00"
Sunlit
Object was in full shadow at epoch
Visualization orbit readout
Latitude
Unknown
Longitude
Unknown
Altitude
Unknown
Speed
Unknown
Apparent Right ascension
Unknown
Apparent Declination
Unknown
Sunlit
N/A
Visualization observer readout
Local Sidereal Time
07:26:00
Azimuth
Unknown
Elevation
Unknown
Doppler factor
Unknown
Orbital elements
Apogee altitude
30,738.742 km
Perigee altitude
416.649 km
Semi-major axis
21,955.832 km
Eccentricity
0.69052
Inclination
19.8734°
RAAN
87.6259°
Arg. of periapsis
39.3076°
True anomaly
321.23079°
Mean anomaly
354.5258°
Eccentric anomaly
342.87748°
Mean motion
0.66714 °/min
Orbital period
539.62 mins
BSTAR
0.0040869
Loading maneuver chart data...
Computing Atmospheric mass density...
Loading historical data...
Loading historical data...
Loading historical data...
Loading historical data...
Loading historical data...
Loading historical data...
Loading historical data...

Documentation

Showing up to 5 results
|